Weather History for PHKO - June, 2013

Change the Weather History Date:

Friday, June 21, 2013

  Actual Average Record
Temperature  
Mean Temperature 78 °F -  
Max Temperature 82 °F 81 °F 90 °F (1983)
Min Temperature 73 °F 72 °F 69 °F (1993)
Cooling Degree Days 12    
Growing Degree Days 28 (Base 50)    
Moisture  
Dew Point 64 °F    
Average Humidity 59    
Maximum Humidity 66    
Minimum Humidity 53    
Precipitation  
Precipitation 0.00 in - - ()
Sea Level Pressure  
Sea Level Pressure 29.99 in    
Wind  
Wind Speed 7 mph (SE)    
Max Wind Speed 15 mph    
Max Gust Speed -    
Visibility 10 miles    
Events      
Averages and records for this station are not official NWS values.
T = Trace of Precipitation, MM = Missing Value Source: NWS Daily Summary

Daily Weather History Graph

Daily Weather History Graph

Search for Another Location

Airport or City:

Trip Planner

Search our weather history database for the weather conditions in past years. The results will help you decide how hot, cold, wet, or windy it might be!

Date:

Astronomy

Jun. 21, 2013 Rise Set
Actual Time 5:46 AM HST 7:05 PM HST
Civil Twilight 5:21 AM HST 7:30 PM HST
Nautical Twilight 4:52 AM HST 7:59 PM HST
Astronomical Twilight 4:22 AM HST 8:29 PM HST
Moon 5:36 PM HST (6/21) 4:02 AM HST (6/21)
Length of Visible Light 14h 08m
Length of Day
13h 19m
Waxing Gibbous, 96% of the Moon is Illuminated
Jun 21
Waxing Gibbous
Jun 23
Full
Jun 29
Last Quarter
Jul 7
New
Jul 15
First Quarter

Hourly Weather History & Observations

Time (HST) Temp. Heat Index Dew Point Humidity Pressure Visibility Wind Dir Wind Speed Gust Speed Precip Events Conditions
12:53 AM 77.0 °F - 64.9 °F 66% 30.01 in 10.0 mi East 4.6 mph - N/A   Scattered Clouds
1:53 AM 75.9 °F - 59.0 °F 56% 30.00 in 10.0 mi ENE 10.4 mph - N/A   Clear
2:53 AM 75.9 °F - 59.0 °F 56% 29.99 in 10.0 mi NE 12.7 mph - N/A   Clear
3:53 AM 75.9 °F - 60.1 °F 58% 29.99 in 10.0 mi NE 6.9 mph - N/A   Clear
4:53 AM 75.9 °F - 60.1 °F 58% 29.99 in 10.0 mi NNW 5.8 mph - N/A   Clear
5:53 AM 73.0 °F - 61.0 °F 66% 29.99 in 10.0 mi NE 6.9 mph - N/A   Clear
6:53 AM 78.1 °F - 61.0 °F 56% 30.01 in 10.0 mi Calm Calm - N/A   Clear
7:53 AM 80.1 °F 81.5 °F 63.0 °F 56% 30.01 in 10.0 mi SSE 10.4 mph - N/A   Clear
8:53 AM 82.0 °F 83.4 °F 64.0 °F 54% 30.01 in 10.0 mi SSE 15.0 mph - N/A   Clear
9:53 AM 82.9 °F 84.4 °F 64.0 °F 53% 30.02 in 10.0 mi South 11.5 mph - N/A   Clear
10:53 AM 82.0 °F 84.1 °F 66.0 °F 58% 30.01 in 10.0 mi SSW 11.5 mph - N/A   Mostly Cloudy
11:53 AM 82.0 °F 84.9 °F 68.0 °F 62% 30.00 in 10.0 mi SW 10.4 mph - N/A   Overcast
12:53 PM 82.0 °F 84.5 °F 66.9 °F 60% 29.99 in 10.0 mi WSW 4.6 mph - N/A   Overcast
1:53 PM 82.9 °F 85.4 °F 66.9 °F 58% 29.98 in 10.0 mi WSW 6.9 mph - N/A   Overcast
2:53 PM 81.0 °F 83.3 °F 66.9 °F 62% 29.97 in 10.0 mi Variable 4.6 mph - N/A   Overcast
3:53 PM 82.0 °F 84.1 °F 66.0 °F 58% 29.96 in 10.0 mi Variable 4.6 mph - N/A   Overcast
4:53 PM 82.0 °F 83.8 °F 64.9 °F 56% 29.94 in 10.0 mi Variable 4.6 mph - N/A   Overcast
5:53 PM 81.0 °F 82.7 °F 64.9 °F 58% 29.96 in 10.0 mi SE 5.8 mph - N/A   Overcast
6:53 PM 81.0 °F 82.7 °F 64.9 °F 58% 29.97 in 10.0 mi SE 6.9 mph - 0.00 in   Overcast
7:53 PM 79.0 °F - 64.9 °F 62% 29.99 in 10.0 mi East 12.7 mph - 0.00 in   Overcast
8:53 PM 79.0 °F - 64.9 °F 62% 30.00 in 10.0 mi South 3.5 mph - N/A   Mostly Cloudy
9:53 PM 79.0 °F - 64.0 °F 60% 30.01 in 10.0 mi SSE 6.9 mph - N/A   Mostly Cloudy
10:53 PM 78.1 °F - 64.0 °F 62% 30.02 in 10.0 mi East 4.6 mph - N/A   Partly Cloudy
11:44 PM 77.0 °F - 64.4 °F 65% 30.00 in 10.0 mi East 4.6 mph - N/A   Mostly Cloudy
11:53 PM 77.0 °F - 64.9 °F 66% 30.01 in 10.0 mi ESE 5.8 mph - N/A   Overcast